Location: Buffign�court
(47.8126°N, 6.0176°E)
Time: 18:12:21
(UTC+00:00)

Cosmos 1470 - Pass Details

Date: 16 June 2021
Orbit: 519 x 542 km, 82.5° (Epoch: 30 July)

Event Time Altitude Azimuth Distance (km) Brightness Sun altitude
Rises 20:08:09 0° 350° (N) 2,717 7.3 -4.8°
Reaches altitude 10° 20:10:19 10° 351° (N) 1,818 6.4 -5.1°
Maximum altitude 20:14:20 88° 83° (E) 548 2.8 -5.6°
Drops below altitude 10° 20:18:17 10° 171° (S) 1,793 5.0 -6.0°
Enters shadow 20:19:50 - 172° (S) 2,435 5.6 -6.2°
